TimeCDT,TemperatureF,Dew PointF,Humidity,Sea Level PressureIn,VisibilityMPH,Wind Direction,Wind SpeedMPH,Gust SpeedMPH,PrecipitationIn,Events,Conditions,WindDirDegrees,DateUTC
12:51 AM,80.1,64.0,58,29.56,10.0,South,15.0,27.6,N/A,,Clear,190,2013-05-28 05:51:00
1:51 AM,79.0,64.0,60,29.56,10.0,SSW,18.4,28.8,N/A,,Clear,200,2013-05-28 06:51:00
2:51 AM,77.0,64.0,64,29.56,10.0,South,13.8,23.0,N/A,,Clear,190,2013-05-28 07:51:00
3:51 AM,73.9,63.0,68,29.56,10.0,SSW,18.4,27.6,N/A,,Clear,200,2013-05-28 08:51:00
4:51 AM,73.0,63.0,71,29.57,10.0,SSW,16.1,26.5,N/A,,Clear,200,2013-05-28 09:51:00
5:51 AM,71.1,62.1,73,29.59,10.0,SSW,10.4,-,N/A,,Clear,200,2013-05-28 10:51:00
6:51 AM,69.1,61.0,75,29.59,10.0,SSW,12.7,21.9,N/A,,Clear,200,2013-05-28 11:51:00
7:51 AM,71.1,61.0,70,29.59,10.0,SSW,15.0,24.2,N/A,,Clear,210,2013-05-28 12:51:00
8:51 AM,75.9,59.0,56,29.59,10.0,WSW,15.0,-,N/A,,Clear,240,2013-05-28 13:51:00
9:51 AM,81.0,55.0,41,29.58,10.0,SW,8.1,-,N/A,,Clear,230,2013-05-28 14:51:00
10:51 AM,87.1,44.1,22,29.57,10.0,WSW,6.9,-,N/A,,Clear,240,2013-05-28 15:51:00
11:51 AM,91.9,35.1,13,29.56,10.0,Variable,5.8,-,N/A,,Clear,0,2013-05-28 16:51:00
12:51 PM,95.0,46.9,19,29.55,10.0,South,20.7,28.8,N/A,,Clear,170,2013-05-28 17:51:00
1:51 PM,93.0,53.1,26,29.55,10.0,South,16.1,29.9,N/A,,Clear,170,2013-05-28 18:51:00
2:51 PM,93.9,54.0,26,29.52,10.0,South,20.7,28.8,N/A,,Clear,180,2013-05-28 19:51:00
3:51 PM,95.0,51.1,22,29.47,10.0,South,19.6,35.7,N/A,,Partly Cloudy,190,2013-05-28 20:51:00
4:51 PM,91.0,48.0,23,29.48,10.0,South,26.5,40.3,N/A,,Clear,180,2013-05-28 21:51:00
5:30 PM,87.8,44.6,22,29.61,6.0,SSW,32.2,52.9,N/A,,Haze,200,2013-05-28 22:30:00
5:51 PM,88.0,28.9,12,29.49,10.0,SW,23.0,43.7,N/A,,Scattered Clouds,220,2013-05-28 22:51:00
6:51 PM,87.1,34.0,15,29.50,7.0,SSW,26.5,42.6,N/A,,Mostly Cloudy,200,2013-05-28 23:51:00
7:30 PM,84.2,33.8,16,29.61,10.0,SSW,21.9,40.3,N/A,,Scattered Clouds,200,2013-05-29 00:30:00
7:51 PM,86.0,34.0,16,29.48,10.0,South,25.3,43.7,N/A,,Clear,190,2013-05-29 00:51:00
8:51 PM,82.0,41.0,23,29.48,5.0,South,32.2,47.2,N/A,,Haze,190,2013-05-29 01:51:00
9:11 PM,82.4,37.4,20,29.61,4.0,South,34.5,50.6,N/A,,Haze,190,2013-05-29 02:11:00
9:19 PM,82.4,37.4,20,29.61,3.0,South,34.5,50.6,N/A,,Haze,180,2013-05-29 02:19:00
9:33 PM,82.4,35.6,19,29.63,5.0,SSW,34.5,52.9,N/A,,Haze,210,2013-05-29 02:33:00
9:49 PM,82.4,37.4,20,29.64,9.0,SSW,31.1,51.8,N/A,,Partly Cloudy,210,2013-05-29 02:49:00
9:51 PM,82.0,37.9,21,29.49,10.0,SSW,28.8,50.6,N/A,,Partly Cloudy,210,2013-05-29 02:51:00
10:51 PM,82.9,37.0,19,29.55,10.0,WSW,23.0,40.3,N/A,,Clear,240,2013-05-29 03:51:00
11:51 PM,78.1,42.1,28,29.60,10.0,NW,16.1,40.3,0.00,Rain,Light Rain,310,2013-05-29 04:51:00
11:58 PM,78.8,41.0,26,29.74,10.0,NNW,11.5,31.1,0.00,Rain,Light Rain,330,2013-05-29 04:58:00